Flag for Guinea Weather past 2 weeks in Conakry, Guinea

Now
82 °F

Partly sunny.


Feels Like: 89 °F
Forecast: 78 / 82 °F
Wind: 7 mph from Northwest

Location: Conakry / Gbessia

Current Time: Sep 5, 2015 at 12:53:01 PM

Latest Report: Sep 5, 2015 at 12:00 PM


Visibility: N/A

Pressure: 29.98 "Hg

Humidity: 79%

Dew point: 75 °F

Location of ConakryLocation

Historic Weather in Conakry — Graph

°F

Conakry temperature yesterday

Maximum temperature yesterday: 82 °F (at 10:00 AM)
Minimum temperature yesterday: 75 °F (at 3:00 AM)
Average temperature yesterday: 79 °F

Past Weeks' High & Low Weather Summary

 TemperatureHumidityPressure
High86 °F (Aug 26, 2:00 PM)100% (Aug 21, 11:00 AM)30.01 "Hg (Aug 21, 11:00 AM)
Low73 °F (Aug 22, 7:00 AM)70% (Aug 25, 3:00 PM)29.83 "Hg (Aug 21, 4:00 PM)
Average79 °F92%29.92 "Hg
* Reported Aug 21 11:00 AM — Sep 5 11:00 AM, Conakry, Weather by CustomWeather, © 2015

Note: Actual official high and low records may vary slightly from our data, if they occured in-between our weather recording intervals... More about our weather records

Advertising

Conakry weather history for previous 24 hours

 ConditionsComfort  
Time TempWeatherWind HumidityBarometerVisibility
11:00 AM
Sat, Sep 5
82 °FBroken clouds.9 mph84%29.98 "HgN/A
10:00 AM82 °FPartly sunny.14 mph79%29.95 "HgN/A
9:00 AM79 °FPartly sunny.9 mph94%29.98 "HgN/A
7:00 AM77 °FThunderstorms. Partly sunny.9 mph100%29.92 "Hg5 mi
6:00 AM77 °FThunderstorms. Mostly cloudy.9 mph100%29.92 "Hg5 mi
5:00 AM77 °FThunderstorms. Mostly cloudy.12 mph100%29.92 "Hg4 mi
4:00 AM77 °FThunderstorms. Mostly cloudy.7 mph100%29.92 "Hg4 mi
3:00 AM75 °FStrong thunderstorms. Mostly cloudy.14 mph100%29.95 "HgN/A
2:00 AM79 °FLight rain. Passing clouds.7 mph94%29.95 "Hg5 mi
1:00 AM77 °FLight rain. Passing clouds.7 mph94%29.95 "Hg5 mi
12:00 AM77 °FLight rain. Passing clouds.2 mph100%29.98 "Hg5 mi
11:00 PM
Fri, Sep 4
77 °FLight rain. Passing clouds.No wind100%29.98 "Hg5 mi
10:00 PM77 °FThunderstorms. Passing clouds.7 mph100%29.92 "Hg5 mi
9:00 PM77 °FThunderstorms. Passing clouds.7 mph100%29.92 "Hg5 mi
8:00 PM77 °FLight rain. Passing clouds.5 mph100%29.92 "Hg5 mi
7:00 PM77 °FPartly sunny.7 mph100%29.92 "HgN/A
6:00 PM77 °FLight rain. Partly sunny.7 mph100%29.89 "Hg5 mi
5:00 PM81 °FPartly sunny.12 mph84%29.89 "HgN/A
4:00 PM81 °FPartly sunny.12 mph84%29.92 "HgN/A
3:00 PM81 °FThunderstorms. Partly sunny.12 mph89%29.92 "HgN/A
2:00 PM82 °FThunderstorms. Partly sunny.18 mph84%29.92 "HgN/A
1:00 PM82 °FPartly sunny.9 mph89%29.95 "HgN/A
12:00 PM82 °FPartly sunny.12 mph89%29.98 "HgN/A
Weather by CustomWeather, © 2015

See weather overviewHow to use our weather pages